sat.trackr.live / text

‹ back to catalog

LMRST-SAT

NORAD 40971 · 2015-058H

PAYLOAD ACTIVE UNKNOWN

§ Identity

Operator
Country
US
Launch date
2015-10-08
Launch site
AFWTR
Launch vehicle
Mass (kg)
RCS (m²)

Purposes: tech_demo

External: N2YO · Heavens-Above · Gunter

§ Orbital elements

Epoch: 2026-05-24T23:00:57.129984Z

Period
96.62 min
Inclination
64.7769°
Eccentricity
0.0131135
Mean motion
14.90441869 rev/d
Perigee alt
505.1 km
Apogee alt
688.0 km
Semi-major
6,974.7 km
B*
2.6411e-4
RAAN
347.4568°
Arg perigee
67.7365°
Mean anomaly
293.7593°
Rev number
11,009

§ Raw data

LMRST-SAT1 40971U 15058H   26144.95899456  .00002864  00000+0  26411-3 0  99982 40971  64.7769 347.4568 0131135  67.7365 293.7593 14.90441869110092

JSON: /api/v1/satellites/40971 · /tle

For live sub-satellite position, see the globe view (requires WebGL).

§ Visibility from observer

Set your observer location to see the next 7 days of passes ≥ 10°. The values pass through the URL so the page stays shareable.

No JS? Fill the form by hand. The geolocation button needs JavaScript.